TimeEET,TemperatureF,Dew PointF,Humidity,Sea Level PressureIn,VisibilityMPH,Wind Direction,Wind SpeedMPH,Gust SpeedMPH,PrecipitationIn,Events,Conditions,WindDirDegrees,DateUTC
12:20 AM,37.4,33.8,87,30.27,4.3,Calm,Calm,-,N/A,,Unknown,0,2012-12-24 22:20:00
12:50 AM,39.2,33.8,81,30.24,-9999.0,Calm,Calm,-,N/A,,Clear,0,2012-12-24 22:50:00
1:20 AM,42.8,35.6,76,30.24,4.3,Variable,2.3,-,N/A,,Unknown,0,2012-12-24 23:20:00
1:50 AM,42.8,35.6,76,30.24,4.3,Variable,2.3,-,N/A,,Unknown,0,2012-12-24 23:50:00
2:00 AM,43,37,72,30.27,4,West,2.3,,,,Mist,260,2012-12-25 00:00:00
2:20 AM,42.8,35.6,76,30.27,4.3,West,3.5,-,N/A,,Unknown,270,2012-12-25 00:20:00
2:50 AM,42.8,37.4,81,30.27,4.3,West,5.8,-,N/A,,Unknown,280,2012-12-25 00:50:00
3:20 AM,42.8,35.6,76,30.27,4.3,WNW,3.5,-,N/A,,Unknown,290,2012-12-25 01:20:00
3:50 AM,41.0,35.6,81,30.27,5.0,West,4.6,-,N/A,,Unknown,280,2012-12-25 01:50:00
4:20 AM,41.0,35.6,81,30.24,5.0,West,3.5,-,N/A,,Unknown,270,2012-12-25 02:20:00
4:50 AM,39.2,33.8,81,30.24,5.0,WNW,2.3,-,N/A,,Unknown,290,2012-12-25 02:50:00
5:20 AM,41.0,39.2,93,30.24,5.0,West,3.5,-,N/A,,Unknown,280,2012-12-25 03:20:00
5:50 AM,41.0,39.2,93,30.27,5.0,Variable,1.2,-,N/A,,Unknown,0,2012-12-25 03:50:00
6:20 AM,42.8,41.0,93,30.27,5.0,West,2.3,-,N/A,,Unknown,270,2012-12-25 04:20:00
6:50 AM,44.6,41.0,87,30.27,-9999.0,WSW,5.8,-,N/A,,Clear,240,2012-12-25 04:50:00
7:20 AM,46.4,41.0,81,30.27,5.0,SSW,11.5,-,N/A,,Unknown,210,2012-12-25 05:20:00
7:50 AM,46.4,39.2,76,30.27,5.0,SSW,9.2,-,N/A,,Unknown,200,2012-12-25 05:50:00
8:00 AM,46,39,69,30.29,5,SSW,9.2,,,,Mist,200,2012-12-25 06:00:00
8:20 AM,46.4,39.2,76,30.27,-9999.0,SSW,10.4,-,N/A,,Clear,210,2012-12-25 06:20:00
8:50 AM,46.4,39.2,76,30.30,-9999.0,SSW,10.4,-,N/A,,Clear,210,2012-12-25 06:50:00
9:20 AM,48.2,39.2,71,30.30,-9999.0,SSW,10.4,-,N/A,,Clear,210,2012-12-25 07:20:00
9:50 AM,48.2,39.2,71,30.30,-9999.0,SSW,10.4,-,N/A,,Clear,210,2012-12-25 07:50:00
10:20 AM,48.2,39.2,71,30.30,6.2,SSW,10.4,-,N/A,,Unknown,210,2012-12-25 08:20:00
10:50 AM,48.2,39.2,71,30.30,6.2,SSW,10.4,-,N/A,,Unknown,210,2012-12-25 08:50:00
11:20 AM,50.0,39.2,66,30.30,-9999.0,SSW,11.5,-,N/A,,Clear,210,2012-12-25 09:20:00
11:50 AM,50.0,39.2,66,30.30,-9999.0,SSW,9.2,-,N/A,,Clear,210,2012-12-25 09:50:00
12:20 PM,50.0,39.2,66,30.27,-9999.0,SSW,10.4,-,N/A,,Clear,210,2012-12-25 10:20:00
12:50 PM,50.0,39.2,66,30.27,-9999.0,SSW,10.4,-,N/A,,Clear,210,2012-12-25 10:50:00
1:50 PM,50.0,39.2,66,30.27,-9999.0,SW,10.4,-,N/A,,Clear,220,2012-12-25 11:50:00
2:00 PM,51,38,51,30.28,6,SW,10.4,,,,,220,2012-12-25 12:00:00
2:20 PM,50.0,39.2,66,30.24,6.2,SW,10.4,-,N/A,,Unknown,230,2012-12-25 12:20:00
2:50 PM,50.0,39.2,66,30.24,-9999.0,SW,9.2,-,N/A,,Clear,230,2012-12-25 12:50:00
3:20 PM,50.0,39.2,66,30.24,-9999.0,SW,8.1,-,N/A,,Clear,230,2012-12-25 13:20:00
3:50 PM,50.0,41.0,71,30.24,-9999.0,WSW,6.9,-,N/A,,Clear,240,2012-12-25 13:50:00
4:20 PM,50.0,41.0,71,30.24,-9999.0,WSW,9.2,-,N/A,,Clear,240,2012-12-25 14:20:00
4:50 PM,50.0,42.8,76,30.24,-9999.0,SW,9.2,-,N/A,,Clear,230,2012-12-25 14:50:00
5:20 PM,48.2,42.8,82,30.24,4.3,SSW,5.8,-,N/A,,Unknown,200,2012-12-25 15:20:00
5:50 PM,48.2,41.0,76,30.24,4.3,SW,4.6,-,N/A,,Unknown,220,2012-12-25 15:50:00
6:20 PM,46.4,41.0,81,30.24,4.3,SSW,3.5,-,N/A,,Unknown,200,2012-12-25 16:20:00
6:50 PM,46.4,41.0,81,30.24,4.3,SSW,2.3,-,N/A,,Unknown,200,2012-12-25 16:50:00
7:20 PM,48.2,42.8,82,30.24,-9999.0,SW,3.5,-,N/A,,Clear,220,2012-12-25 17:20:00
7:50 PM,48.2,44.6,87,30.24,-9999.0,SW,4.6,-,N/A,,Clear,230,2012-12-25 17:50:00
8:00 PM,49,44,77,30.27,6,SW,4.6,,,,,230,2012-12-25 18:00:00
8:20 PM,48.2,42.8,82,30.24,-9999.0,SW,5.8,-,N/A,,Clear,230,2012-12-25 18:20:00
8:50 PM,50.0,42.8,76,30.24,-9999.0,SW,8.1,-,N/A,,Clear,230,2012-12-25 18:50:00
9:20 PM,48.2,41.0,76,30.24,-9999.0,SSW,4.6,-,N/A,,Clear,200,2012-12-25 19:20:00
9:50 PM,48.2,42.8,82,30.24,-9999.0,SW,3.5,-,N/A,,Clear,220,2012-12-25 19:50:00
10:20 PM,48.2,42.8,82,30.24,-9999.0,SW,8.1,-,N/A,,Clear,230,2012-12-25 20:20:00
10:50 PM,48.2,42.8,82,30.21,-9999.0,WSW,5.8,-,N/A,,Clear,250,2012-12-25 20:50:00
11:20 PM,48.2,42.8,82,30.21,-9999.0,SW,8.1,-,N/A,,Clear,230,2012-12-25 21:20:00
11:50 PM,48.2,42.8,82,30.21,-9999.0,WSW,6.9,-,N/A,,Clear,240,2012-12-25 21:50:00